IRIDIUM 106 1 41917U 17003A 25296.64997972 .00000267 00000+0 88165-4 0 9996 2 41917 86.4034 187.3581 0001827 72.3417 287.7978 14.34217135459304 IRIDIUM 103 1 41918U 17003B 25296.42798666 .00000461 00000+0 15737-3 0 9992 2 41918 86.4034 187.3513 0002514 77.0241 283.1235 14.34219920459299 IRIDIUM 109 1 41919U 17003C 25296.64362718 .00000432 00000+0 14716-3 0 9996 2 41919 86.4034 187.3168 0002273 81.5241 278.6212 14.34222685459294 IRIDIUM 102 1 41920U 17003D 25296.68169340 .00000083 00000+0 22721-4 0 9996 2 41920 86.4036 187.2298 0002128 86.6117 273.5323 14.34217003459383 IRIDIUM 105 1 41921U 17003E 25296.65243632 .00000331 00000+0 11108-3 0 9993 2 41921 86.4001 155.7525 0002235 82.3986 277.7463 14.34216550461239 IRIDIUM 104 1 41922U 17003F 25296.41530698 .00000454 00000+0 15493-3 0 9996 2 41922 86.4035 187.3797 0002466 86.4528 273.6950 14.34221072459331 IRIDIUM 114 1 41923U 17003G 25296.63095162 .00000152 00000+0 47097-4 0 9994 2 41923 86.4033 187.2738 0002285 81.3102 278.8353 14.34214885459344 IRIDIUM 108 1 41924U 17003H 25296.65924166 .00000406 00000+0 13783-3 0 9998 2 41924 86.3992 155.6429 0001913 88.3977 271.7438 14.34217740461205 IRIDIUM 112 1 41925U 17003J 25296.40895968 .00000093 00000+0 26290-4 0 9999 2 41925 86.4028 187.2194 0002253 86.0762 274.0691 14.34218612459339 IRIDIUM 111 1 41926U 17003K 25296.67534314 .00000439 00000+0 14955-3 0 9992 2 41926 86.4033 187.1734 0002241 79.2993 280.8455 14.34212292459355 IRIDIUM 113 1 42803U 17039A 25296.58554696 .00000517 00000+0 17747-3 0 9990 2 42803 86.3962 61.0541 0002132 91.6159 268.5281 14.34217984437277 IRIDIUM 123 1 42804U 17039B 25296.48748596 .00000064 00000+0 15769-4 0 9994 2 42804 86.3924 92.5922 0001991 81.0600 279.0821 14.34216510436027 IRIDIUM 120 1 42805U 17039C 25296.43966625 .00000537 00000+0 18476-3 0 9997 2 42805 86.3955 60.9278 0001668 94.5983 265.5403 14.34218010437247 IRIDIUM 115 1 42806U 17039D 25296.42308905 .00000463 00000+0 13176-3 0 9998 2 42806 86.4492 61.0308 0001816 76.9141 283.2262 14.43280562440117 IRIDIUM 118 1 42807U 17039E 25296.51920082 -.00000055 00000+0 -26660-4 0 9997 2 42807 86.3922 92.5783 0002179 91.8770 268.2675 14.34217104436026 IRIDIUM 117 1 42808U 17039F 25296.46845993 -.00000127 00000+0 -52551-4 0 9997 2 42808 86.3921 92.5594 0002014 83.9260 276.2165 14.34216712436049 IRIDIUM 126 1 42809U 17039G 25296.49383116 .00000074 00000+0 19402-4 0 9992 2 42809 86.3923 92.5959 0002250 88.4592 271.6861 14.34217628436024 IRIDIUM 124 1 42810U 17039H 25296.70356294 .00000575 00000+0 16500-3 0 9996 2 42810 86.4535 29.2148 0002016 89.4869 270.6563 14.43278063441003 IRIDIUM 128 1 42811U 17039J 25296.48458546 .00000146 00000+0 45241-4 0 9994 2 42811 86.3937 124.1326 0001707 80.8808 279.2581 14.34216949436055 IRIDIUM 121 1 42812U 17039K 25296.51285670 -.00000004 00000+0 -85639-5 0 9996 2 42812 86.3923 92.6142 0001823 92.5598 267.5807 14.34217628435900 IRIDIUM 133 1 42955U 17061A 25296.51628062 -.00000026 00000+0 -16420-4 0 9990 2 42955 86.3943 124.2312 0001930 86.6601 273.4815 14.34217407420857 IRIDIUM 100 1 42956U 17061B 25296.50993698 .00000077 00000+0 20361-4 0 9993 2 42956 86.3937 124.1581 0002118 83.6416 276.5021 14.34217525420852 IRIDIUM 122 1 42957U 17061C 25296.47822522 -.00000188 00000+0 -74098-4 0 9998 2 42957 86.3941 124.1708 0002005 83.9461 276.1963 14.34216762420850 IRIDIUM 129 1 42958U 17061D 25296.50359465 .00000087 00000+0 24025-4 0 9995 2 42958 86.3938 124.2247 0002389 94.5226 265.6242 14.34217391420872 IRIDIUM 119 1 42959U 17061E 25296.47188303 -.00000050 00000+0 -25031-4 0 9993 2 42959 86.3942 124.2327 0002225 85.2568 274.8882 14.34217346420885 IRIDIUM 107 1 42960U 17061F 25296.49090711 .00000135 00000+0 41312-4 0 9994 2 42960 86.3939 124.2447 0002217 75.8602 284.2840 14.34219344420891 IRIDIUM 132 1 42961U 17061G 25296.49724838 .00000138 00000+0 42039-4 0 9999 2 42961 86.3939 124.2232 0002070 84.5991 275.5441 14.34219615420890 IRIDIUM 136 1 42962U 17061H 25296.52896437 .00000142 00000+0 43738-4 0 9991 2 42962 86.3939 124.2153 0002207 84.7002 275.4446 14.34218724420917 IRIDIUM 139 1 42963U 17061J 25296.46554000 -.00000079 00000+0 -35123-4 0 9992 2 42963 86.3944 124.3000 0001923 80.3352 279.8060 14.34217129420918 IRIDIUM 125 1 42964U 17061K 25296.52262338 -.00000109 00000+0 -46129-4 0 9992 2 42964 86.3946 124.3328 0002393 77.1942 282.9521 14.34217613420932 IRIDIUM 135 1 43070U 17083A 25296.63628584 .00000246 00000+0 80706-4 0 9995 2 43070 86.3961 60.8843 0001986 97.5191 262.6230 14.34215475410242 IRIDIUM 138 1 43071U 17083B 25296.59188984 -.00000090 00000+0 -39331-4 0 9993 2 43071 86.3971 60.5620 0002384 93.7146 266.4322 14.34216023410227 IRIDIUM 116 1 43072U 17083C 25296.42063816 -.00000461 00000+0 -17153-3 0 9991 2 43072 86.3959 60.9633 0001786 94.4098 265.7302 14.34215462410238 IRIDIUM 130 1 43073U 17083D 25296.59823016 .00000155 00000+0 48111-4 0 9993 2 43073 86.3965 61.1416 0001802 85.4248 274.7154 14.34216327410207 IRIDIUM 151 1 43074U 17083E 25296.43332411 .00000071 00000+0 18162-4 0 9991 2 43074 86.3962 61.0105 0001844 95.3049 264.8357 14.34217102410201 IRIDIUM 134 1 43075U 17083F 25296.61091016 .00000581 00000+0 20033-3 0 9990 2 43075 86.3964 60.9411 0001926 86.9395 273.2021 14.34213847410195 IRIDIUM 137 1 43076U 17083G 25296.41429558 .00000321 00000+0 10768-3 0 9991 2 43076 86.3963 61.1112 0001658 106.8382 253.2995 14.34216509410237 IRIDIUM 141 1 43077U 17083H 25296.61725994 .00000232 00000+0 75675-4 0 9997 2 43077 86.3960 60.8702 0002172 94.3100 265.8344 14.34217092410265 IRIDIUM 153 1 43078U 17083J 25296.49967064 .00000133 00000+0 40508-4 0 9997 2 43078 86.4011 29.4027 0002449 92.1935 267.9542 14.34217053411355 IRIDIUM 131 1 43079U 17083K 25296.39526925 .00000301 00000+0 10027-3 0 9993 2 43079 86.3965 61.1334 0002127 94.3731 265.7707 14.34216487410165 IRIDIUM 144 1 43249U 18030A 25296.64555001 .00000065 00000+0 16152-4 0 9993 2 43249 86.4009 29.2764 0001954 95.5839 264.5580 14.34216124396230 IRIDIUM 149 1 43250U 18030B 25296.65189206 .00000521 00000+0 17898-3 0 9990 2 43250 86.4010 29.2434 0002012 94.3335 265.8091 14.34218021396253 IRIDIUM 157 1 43251U 18030C 25296.67092002 .00000123 00000+0 36765-4 0 9993 2 43251 86.4008 29.2833 0002199 100.9617 259.1827 14.34217591396239 IRIDIUM 140 1 43252U 18030D 25296.55040942 .00000414 00000+0 14074-3 0 9998 2 43252 86.4013 29.3471 0001775 90.1975 269.9425 14.34215118396271 IRIDIUM 145 1 43253U 18030E 25296.67726226 .00000213 00000+0 68917-4 0 9991 2 43253 86.4010 29.2666 0001754 91.6691 268.4706 14.34216673396220 IRIDIUM 146 1 43254U 18030F 25296.65823101 .00000252 00000+0 82986-4 0 9995 2 43254 86.4009 29.2875 0001848 94.1927 265.9480 14.34214394396235 IRIDIUM 148 1 43255U 18030G 25296.55675229 -.00000100 00000+0 -42800-4 0 9996 2 43255 86.4007 29.3693 0001953 99.9568 260.1848 14.34215641396257 IRIDIUM 142 1 43256U 18030H 25296.66457659 .00000273 00000+0 90304-4 0 9995 2 43256 86.4008 29.2220 0001665 92.6733 267.4653 14.34216821396231 IRIDIUM 150 1 43257U 18030J 25296.49332679 .00000588 00000+0 20275-3 0 9999 2 43257 86.4011 29.4020 0001960 92.3187 267.8233 14.34216620396239 IRIDIUM 143 1 43258U 18030K 25296.54406811 .00000285 00000+0 94554-4 0 9992 2 43258 86.4014 29.4642 0001733 92.2761 267.8634 14.34215996396171 IRIDIUM 161 1 43478U 18047C 25296.68150223 .00000516 00000+0 14741-3 0 9998 2 43478 86.4555 187.2735 0002313 83.0743 277.0721 14.43270782391027 IRIDIUM 152 1 43479U 18047D 25296.23770426 .00000293 00000+0 97525-4 0 9997 2 43479 86.4031 187.3198 0002224 83.5638 276.5811 14.34221394388520 IRIDIUM 147 1 43480U 18047E 25296.66266613 .00000164 00000+0 51654-4 0 9994 2 43480 86.4031 187.1434 0002151 86.0673 274.0768 14.34216701388585 IRIDIUM 110 1 43481U 18047F 25296.66900899 .00000239 00000+0 78458-4 0 9990 2 43481 86.4033 187.2260 0002594 87.7227 272.4266 14.34216862388572 IRIDIUM 162 1 43482U 18047G 25296.67520426 .00000337 00000+0 94318-4 0 9998 2 43482 86.4555 187.1703 0002424 79.0472 281.1002 14.43275093391010 IRIDIUM 160 1 43569U 18061A 25296.68461306 .00000165 00000+0 51728-4 0 9999 2 43569 86.3998 155.6610 0002254 90.7084 269.4370 14.34217222379476 IRIDIUM 166 1 43570U 18061B 25296.15183362 .00000023 00000+0 12149-5 0 9994 2 43570 86.4000 155.8367 0001754 84.6348 275.5048 14.34216818379428 IRIDIUM 158 1 43571U 18061C 25296.67825911 .00000257 00000+0 84791-4 0 9995 2 43571 86.3995 155.6275 0002329 79.7483 280.3976 14.34211868379469 IRIDIUM 165 1 43572U 18061D 25296.35479656 -.00000091 00000+0 -39390-4 0 9995 2 43572 86.4002 155.8037 0001878 86.4153 273.7257 14.34217196379441 IRIDIUM 155 1 43573U 18061E 25296.66558488 .00000146 00000+0 44902-4 0 9995 2 43573 86.3994 155.5552 0002087 79.0803 281.0628 14.34217098379459 IRIDIUM 154 1 43574U 18061F 25296.57678947 .00000369 00000+0 12459-3 0 9997 2 43574 86.3995 155.7142 0002178 85.9645 274.1799 14.34220413379490 IRIDIUM 163 1 43575U 18061G 25296.13916208 .00000408 00000+0 13845-3 0 9999 2 43575 86.3994 155.8196 0002263 84.6654 275.4800 14.34220994379403 IRIDIUM 156 1 43576U 18061H 25296.67192656 .00000273 00000+0 90524-4 0 9992 2 43576 86.3997 155.6041 0001962 78.2212 281.9204 14.34217727379475 IRIDIUM 164 1 43577U 18061J 25296.65289869 -.00000033 00000+0 -18985-4 0 9991 2 43577 86.4000 155.6482 0001743 89.0501 271.0895 14.34216951379518 IRIDIUM 159 1 43578U 18061K 25296.34211234 -.00000041 00000+0 -21778-4 0 9992 2 43578 86.3998 155.7200 0002049 88.7252 271.4179 14.34217104379433 IRIDIUM 180 1 43922U 19002A 25296.48114404 .00000137 00000+0 41911-4 0 9992 2 43922 86.3922 92.5568 0002229 92.4664 267.6787 14.34216409355069 IRIDIUM 176 1 43923U 19002B 25296.49543595 .00000622 00000+0 94707-4 0 9991 2 43923 86.6046 92.5289 0002176 72.9855 287.1600 14.72257585364429 IRIDIUM 168 1 43924U 19002C 25296.47480160 .00000413 00000+0 14024-3 0 9999 2 43924 86.3925 92.6304 0002108 90.3257 269.8180 14.34217940355044 IRIDIUM 173 1 43925U 19002D 25296.46211454 .00000129 00000+0 39087-4 0 9998 2 43925 86.3925 92.5349 0002295 85.5169 274.6289 14.34217115355024 IRIDIUM 169 1 43926U 19002E 25296.48439796 .00000180 00000+0 52293-4 0 9993 2 43926 86.4194 124.1731 0002697 60.3947 299.7520 14.38609433356199 IRIDIUM 172 1 43927U 19002F 25296.45577492 .00000142 00000+0 43584-4 0 9998 2 43927 86.3921 92.5439 0002292 95.2624 264.8834 14.34216685355032 IRIDIUM 175 1 43928U 19002G 25296.35468253 .00001073 00000+0 16625-3 0 9991 2 43928 86.1537 37.8232 0001398 96.6647 263.4729 14.72250416364392 IRIDIUM 171 1 43929U 19002H 25296.43674587 -.00000045 00000+0 -23217-4 0 9996 2 43929 86.3930 92.8327 0001652 90.0056 270.1329 14.34217168355029 IRIDIUM 170 1 43930U 19002J 25296.43363897 .00000623 00000+0 94918-4 0 9993 2 43930 86.6046 92.5587 0002156 90.0605 270.0859 14.72258946364429 IRIDIUM 167 1 43931U 19002K 25296.43040271 -.00000034 00000+0 -19242-4 0 9997 2 43931 86.3921 92.5753 0001638 82.5114 277.6268 14.34217097355022 IRIDIUM 181 1 56726U 23068S 25296.13872104 .00000540 00000+0 15452-3 0 9993 2 56726 86.4534 155.8572 0001695 97.8562 262.2831 14.43313747128247 IRIDIUM 177 1 56727U 23068T 25296.64935422 .00002271 00000+0 29548-3 0 9997 2 56727 86.1936 81.1183 0002306 86.6318 273.5167 14.80216920131376 IRIDIUM 174 1 56728U 23068U 25296.48927984 .00000671 00000+0 10243-3 0 9998 2 56728 86.6054 92.6592 0002788 87.9012 272.2524 14.72261721131196 IRIDIUM 178 1 56729U 23068V 25296.50325113 .00000715 00000+0 90631-4 0 9997 2 56729 86.6513 124.2944 0002011 82.0315 278.1135 14.80238404131353 IRIDIUM 179 1 56730U 23068W 25296.49789385 .00000680 00000+0 86088-4 0 9994 2 56730 86.6767 132.5651 0001668 74.9118 285.2288 14.80233780131351